SCP
0 0 0 0 0 0 0 0 0 0 0 0 0 0 0 0 0 0 0 0 0 0 1 1 1 1 1 1 1 1 1 1 1 1 1 1 0 0 0 0 0 0 0 0 0 0 0 0 0
0 0 0 0 0 0 0 0 0 0 0 0 0 0 0 0 0 0 0 0 0 0 1 1 1 1 1 1 1 1 1 1 1 1 1 1 0 0 0 0 0 0 0 0 0 0 0 0 0
0 0 0 0 0 0 0 0 0 0 0 0 0 0 0 0 0 0 0 0 0 0 1 1 1 1 1 1 1 1 1 1 1 1 1 1 1 0 0 0 0 0 0 0 0 0 0 0 0
0 0 0 0 0 0 0 0 0 0 0 0 0 0 0 0 0 0 0 0 0 0 1 1 1 1 1 1 1 1 1 1 1 1 1 1 1 1 0 0 0 0 0 0 0 0 0 0 0
0 0 0 0 0 0 0 0 0 0 0 0 0 0 0 0 0 0 0 0 0 0 1 1 1 1 1 1 1 1 1 1 1 1 1 1 1 1 0 0 0 0 0 0 0 0 0 0 0
0 0 0 0 0 0 0 0 0 0 0 0 0 0 0 0 0 0 0 0 0 0 1 1 1 1 1 1 0 0 0 1 1 1 1 1 1 1 0 0 0 0 0 0 0 0 0 0 0
0 0 0 0 0 0 0 0 0 0 0 0 0 0 0 0 0 0 0 0 0 0 1 1 1 1 1 1 0 0 0 1 1 1 1 1 1 0 0 0 0 0 0 0 0 0 0 0 0
0 0 0 0 0 0 0 0 0 0 0 0 0 0 0 0 0 0 0 0 0 0 1 1 1 1 0 0 0 0 0 0 1 1 1 1 1 0 0 0 0 0 0 0 0 0 0 0 0
0 0 0 0 0 0 0 0 0 0 0 0 0 0 0 0 0 0 0 0 0 0 0 1 1 0 0 0 0 0 0 0 1 1 1 1 1 0 0 0 0 0 0 0 0 0 0 0 0
0 0 0 0 0 0 0 0 0 0 0 0 0 0 0 0 0 0 0 0 0 0 0 0 0 0 0 0 0 0 0 0 0 0 0 0 0 0 0 0 0 0 0 0 0 0 0 0 0
0 0 0 0 0 0 0 0 0 0 0 0 0 0 0 0 0 0 0 0 0 0 0 0 0 0 0 0 0 0 0 0 0 0 0 0 0 0 0 0 0 0 0 0 0 0 0 0 0
0 0 0 0 0 0 0 0 0 0 0 0 0 0 0 0 0 0 0 0 0 0 0 0 0 0 0 0 0 0 0 0 0 0 0 0 0 0 0 0 0 0 0 0 0 0 0 0 0
0 0 0 0 0 0 0 0 0 0 0 0 0 0 0 0 0 0 0 0 0 0 0 0 0 0 0 0 0 0 0 0 0 0 0 0 0 0 0 0 0 0 0 0 0 0 0 0 0
0 0 0 0 0 0 0 0 0 0 0 0 0 0 0 0 0 0 0 0 0 0 0 0 0 0 0 0 0 0 0 0 0 0 0 0 0 0 0 0 0 0 0 0 0 0 0 0 0
0 0 0 0 0 0 0 0 0 0 0 0 0 0 0 0 0 0 0 0 0 0 0 0 0 0 0 0 0 0 0 0 0 0 0 0 0 0 0 0 0 0 0 0 0 0 0 0 0
0 0 0 0 0 0 0 0 0 0 0 0 0 0 0 0 0 0 0 0 0 0 0 0 0 0 0 0 0 0 0 0 0 0 0 0 0 0 0 0 0 0 0 0 0 0 0 0 0
0 0 0 0 0 0 0 0 0 0 0 0 0 0 0 0 0 0 0 0 0 0 0 0 0 0 0 0 0 0 0 0 0 0 0 0 0 0 0 -0 0 0 0 0 0 0 0 0 0
0 0 0 0 0 0 0 0 0 0 0 0 0 0 0 0 0 0 0 0 0 0 0 0 0 0 0 0 0 0 0 0 0 0 0 0 0 0 0 -0 0 0 0 0 0 0 0 0 0
0 0 0 0 0 0 0 0 0 0 0 0 0 0 0 0 0 0 0 0 0 0 0 0 0 0 0 0 0 0 0 0 0 0 0 0 0 0 0 -0 0 0 0 0 0 0 0 0 0
0 0 0 0 0 0 0 0 0 0 0 0 0 0 0 0 0 0 0 0 0 0 0 0 0 0 0 0 0 0 0 0 0 0 0 0 0 0 0 0 0 0 0 0 0 0 0 0 0
0 0 0 0 0 0 0 0 0 0 0 0 0 0 0 0 0 0 0 0 0 0 0 0 0 0 0 0 0 0 0 0 0 0 0 0 0 0 0 0 0 0 0 0 0 0 0 0 0
0 0 0 0 0 0 0 0 0 0 0 0 0 0 0 0 0 0 0 0 0 0 0 0 0 0 0 0 0 0 0 0 0 0 0 0 0 0 0 0 0 0 0 0 0 0 0 0 0
0 0 0 0 0 0 0 0 0 0 0 0 0 0 0 0 0 0 0 0 0 0 0 0 0 0 0 0 0 0 0 0 0 0 0 0 0 0 0 0 0 0 0 0 0 0 0 0 0
0 0 0 0 0 0 0 0 0 0 0 0 0 0 0 0 0 0 0 0 0 0 0 0 0 0 0 0 0 0 0 0 0 0 0 0 0 0 0 0 0 0 0 0 0 0 0 0 0
0 0 0 0 0 0 0 0 0 0 0 0 0 0 0 0 0 0 0 0 0 0 0 0 0 0 0 0 0 0 0 0 0 0 0 0 0 0 0 0 0 0 0 0 0 0 0 0 0
0 0 0 0 0 0 0 0 0 0 0 0 0 0 0 0 0 -0 -0 0 0 0 0 0 0 0 0 0 0 0 0 0 0 0 0 0 0 0 0 0 -0 0 0 0 0 0 0 0 0
0 0 0 0 0 0 0 0 0 0 0 0 0 0 0 0 0 -0 -0 0 0 0 0 0 0 0 0 0 0 0 0 0 0 0 0 0 0 0 0 0 0 0 0 0 0 0 0 0 0
0 0 0 0 0 0 0 0 0 0 0 0 0 0 0 0 0 0 0 0 0 0 0 0 0 0 0 0 0 0 0 0 0 0 0 0 0 0 0 0 0 0 0 0 0 0 0 0 0
0 0 0 0 0 0 0 0 0 0 0 0 0 0 0 -0 0 0 0 0 0 0 0 0 0 0 0 0 0 0 0 0 0 0 0 0 0 0 0 0 0 0 0 0 0 0 0 0 0
0 0 0 0 0 0 0 0 0 0 0 0 0 0 -0 -0 0 0 0 0 0 0 0 0 0 0 0 0 0 0 0 0 0 0 0 0 0 0 0 0 0 0 0 0 0 0 0 0 0
Wind_Speed
8 4 2 4 5 3 4 4 2 1 1 1 1 2 4 4 3 2 1 2 3 2 3 5 6 7 8 8 8 9 9 9 9 10 10 10 10 10 9 9 9 9 9 9 10 9 9 9 9
3 2 4 4 4 3 5 4 3 3 2 1 1 1 1 0 1 1 1 1 2 2 2 3 6 7 7 8 8 8 8 8 9 9 10 10 10 9 9 9 9 9 9 9 9 9 8 9 8
2 3 4 4 4 7 5 2 4 3 1 1 2 1 1 0 1 1 1 1 2 2 1 3 6 7 7 7 7 7 7 8 8 9 9 9 9 9 9 8 8 8 8 8 8 7 7 7 8
2 4 4 3 5 4 3 1 1 1 2 2 1 1 1 1 1 1 0 2 3 3 2 1 5 6 7 6 6 7 7 7 8 8 9 9 9 9 8 8 8 8 8 7 7 7 7 7 8
4 4 3 2 5 3 2 1 0 1 1 2 1 0 2 2 2 2 2 3 3 2 2 1 5 5 5 6 5 5 6 6 7 8 8 8 8 8 8 7 7 7 7 7 6 6 6 6 7
4 3 3 5 4 2 1 2 1 1 1 2 1 0 2 2 3 2 1 2 2 2 2 1 4 4 5 4 4 4 4 5 6 8 8 8 8 8 8 7 7 7 6 6 6 6 6 6 6
3 3 4 4 3 2 1 1 1 0 1 1 1 1 2 3 4 2 2 2 2 2 2 2 2 3 4 3 3 3 3 4 5 6 7 7 7 8 8 7 6 6 6 6 5 5 5 5 6
3 3 1 2 3 3 1 1 0 1 2 1 1 2 3 4 4 3 2 3 3 3 2 1 2 2 2 2 2 2 2 3 4 5 6 6 6 7 7 6 6 6 6 5 5 5 5 5 5
3 3 3 3 3 2 1 1 2 1 1 1 1 2 3 2 1 1 2 3 2 3 3 1 1 2 1 2 2 1 2 2 3 4 5 4 2 3 3 4 5 5 5 5 4 5 5 5 5
4 2 4 2 1 1 2 1 2 2 2 2 3 4 3 0 2 2 1 0 1 1 1 1 1 1 1 1 1 1 1 1 1 2 3 2 2 2 3 4 5 5 4 4 4 5 5 3 2
2 3 1 2 1 1 2 3 2 0 3 4 4 4 2 1 1 1 2 2 2 2 1 1 0 1 1 1 1 1 1 1 1 2 2 2 2 1 2 2 2 2 3 2 2 3 2 2 2
1 1 1 1 2 2 2 2 3 2 6 4 4 3 3 2 2 2 2 2 1 1 2 1 1 0 1 1 1 1 1 0 1 1 2 2 1 1 2 2 2 2 1 2 2 2 2 2 2
1 2 2 2 1 1 2 3 3 6 7 4 3 1 2 3 3 2 2 1 2 1 2 2 1 1 1 1 1 1 1 1 1 1 1 2 2 2 1 2 2 2 2 2 2 2 2 2 1
1 1 3 3 3 3 2 4 3 7 4 2 2 2 2 3 3 2 1 2 2 3 2 3 2 1 1 1 0 1 1 1 1 2 2 2 2 3 2 2 2 2 2 2 2 3 2 2 1
1 2 4 4 3 2 1 5 6 6 2 3 3 3 3 3 3 3 3 3 3 3 2 3 2 2 2 1 1 0 1 1 1 1 2 2 2 3 3 2 2 3 3 3 2 2 2 1 1
2 2 3 4 2 2 1 7 5 2 1 4 4 4 3 3 3 3 3 2 2 2 2 3 3 2 2 2 1 1 1 1 1 1 1 2 2 2 3 2 3 3 3 3 3 2 2 1 1
3 1 3 6 2 2 2 7 7 2 2 4 4 4 4 4 4 4 3 2 2 2 2 3 3 2 2 2 1 1 0 1 1 1 1 1 2 2 2 2 2 3 3 3 3 2 2 2 1
2 2 3 5 4 2 4 9 10 5 3 5 5 4 4 5 5 4 4 3 2 2 2 3 3 2 2 2 1 0 0 1 1 1 1 1 1 1 1 1 2 3 3 2 3 3 2 2 2
1 2 5 7 5 4 6 10 11 7 4 5 5 5 5 6 5 3 3 2 2 2 2 3 3 3 2 1 1 1 1 1 1 1 1 1 1 1 1 1 1 3 3 4 4 3 3 1 2
2 3 5 6 4 4 6 11 10 6 5 5 6 6 6 6 5 4 3 2 2 3 3 3 3 3 2 2 2 1 1 1 1 1 1 2 1 1 1 1 1 2 2 3 4 3 2 1 2
3 4 5 5 7 4 6 8 6 4 4 4 4 5 4 5 5 5 4 4 3 3 4 4 4 3 3 2 1 1 0 0 0 1 1 1 1 1 1 2 2 2 3 3 4 4 4 3 1
4 3 4 4 3 4 2 7 7 4 5 5 5 5 5 4 4 4 4 4 3 4 4 4 4 3 2 2 2 3 2 2 2 2 2 1 1 2 1 1 2 2 2 3 4 4 4 4 3
4 3 3 3 2 4 2 4 9 2 5 7 6 6 5 4 4 4 4 4 4 4 3 3 3 2 1 2 3 3 2 1 1 1 1 1 1 1 1 1 1 2 2 3 3 3 4 3 3
3 2 2 1 1 3 4 3 8 3 5 6 6 6 5 4 4 5 4 3 3 3 3 3 1 1 1 1 2 2 2 1 1 1 1 1 1 1 1 1 1 1 2 2 3 3 4 3 3
3 3 4 5 3 5 2 3 9 6 4 5 6 6 4 4 4 4 4 4 4 4 4 2 1 1 1 1 1 2 2 2 2 2 2 1 1 1 1 0 1 1 1 2 2 2 3 3 4
1 3 4 3 4 5 2 6 8 4 4 4 4 5 5 4 4 4 4 4 3 4 3 2 1 1 1 1 1 2 2 1 1 2 1 1 1 1 1 0 0 1 1 1 1 2 2 2 3
2 1 2 2 1 4 6 7 8 3 5 6 6 5 6 6 5 5 4 4 3 3 2 2 2 2 1 1 1 2 2 1 1 1 0 0 0 0 1 1 0 0 1 1 2 2 2 2 1
2 4 3 2 0 5 7 6 5 6 7 7 7 6 6 6 6 5 4 3 2 2 1 1 1 1 1 1 0 1 1 0 0 0 0 0 1 0 1 1 1 0 0 0 2 2 2 2 1
2 2 3 2 2 2 5 8 3 4 4 6 7 7 6 6 6 5 4 2 2 1 1 1 1 1 1 1 1 1 1 1 1 1 1 1 1 0 1 1 1 1 1 1 2 2 2 3 1
2 4 4 3 3 3 3 10 4 3 4 5 6 7 6 6 5 5 3 2 1 1 1 1 1 1 1 1 1 1 1 1 1 1 1 1 1 1 1 1 1 1 1 1 2 3 3 3 2
Wind_Direction
332 344 57 60 64 66 221 231 225 246 238 260 236 155 160 157 161 190 343 76 62 124 160 157 144 132 133 128 128 125 125 124 122 123 123 120 118 117 116 112 109 104 101 99 98 98 102 98 94
330 5 57 67 111 189 243 224 224 228 226 359 25 57 88 106 28 56 20 349 82 110 151 156 142 131 133 133 128 131 128 130 127 126 126 125 123 121 118 114 109 105 101 99 101 96 98 103 100
351 52 86 93 151 196 213 206 221 266 290 20 21 31 102 242 346 333 285 150 87 80 101 157 139 137 133 136 135 130 133 131 133 133 131 130 128 124 120 115 111 106 101 99 98 100 91 103 107
62 52 63 109 205 215 203 219 241 290 349 19 65 19 331 348 337 299 295 115 88 61 44 141 133 139 134 132 139 138 134 138 137 140 137 134 132 127 123 119 115 109 106 104 102 101 95 97 107
58 85 95 196 229 235 241 284 291 89 7 6 62 151 304 343 18 49 81 95 99 69 48 107 119 125 130 135 139 142 145 143 145 143 142 138 135 129 126 124 121 117 113 111 110 104 107 97 110
58 76 137 212 229 243 270 310 30 50 7 4 47 319 274 353 25 20 58 90 95 92 61 75 120 114 117 130 138 139 146 151 149 146 139 140 138 134 132 128 126 123 120 118 115 111 111 101 111
103 115 186 204 224 251 262 321 114 76 336 295 214 177 281 326 343 348 36 61 65 73 71 52 128 126 118 117 121 129 129 141 146 143 139 136 141 140 138 134 130 127 126 126 122 118 115 109 113
107 106 150 213 214 240 310 355 49 172 238 287 139 166 249 285 321 347 42 62 51 46 55 66 94 104 122 133 105 112 129 124 134 136 134 127 135 141 139 136 134 133 132 130 126 122 121 110 113
77 84 202 212 202 243 341 351 330 324 155 323 291 231 264 279 324 39 37 49 47 28 13 25 110 101 99 128 114 96 131 131 119 128 120 112 121 137 138 138 138 140 139 138 133 125 124 108 102
76 159 223 222 199 246 324 305 299 340 330 315 312 321 325 227 150 136 103 83 156 272 331 353 74 125 105 110 107 89 75 114 99 121 127 118 123 138 130 135 136 137 133 136 133 125 115 95 77
89 182 233 274 275 297 320 322 319 224 271 256 256 274 282 218 173 185 208 208 205 220 265 296 284 139 121 124 133 113 80 118 113 120 126 120 104 127 129 140 139 139 127 123 116 100 92 97 94
105 263 239 290 327 329 299 307 320 269 258 268 244 228 214 219 224 233 226 227 221 243 244 280 286 60 136 135 152 137 121 153 150 144 136 140 131 133 161 158 156 149 147 141 127 119 109 104 104
211 277 291 291 325 306 308 286 278 277 277 291 288 256 209 219 233 243 253 249 230 242 266 243 215 180 150 126 157 157 163 178 191 168 162 164 161 167 176 171 163 162 159 154 143 136 131 127 117
234 300 307 306 300 288 282 286 275 268 284 289 289 266 242 229 235 253 280 276 267 258 275 285 217 183 141 132 222 202 177 176 195 189 184 178 176 173 170 182 173 174 167 163 157 154 148 151 145
333 334 327 316 295 276 300 298 247 259 291 295 290 279 264 254 253 253 255 252 261 262 266 296 260 181 170 172 192 291 209 172 186 219 190 189 192 180 173 190 184 181 167 158 148 138 127 132 133
20 12 318 310 330 287 174 268 268 258 258 281 283 281 276 273 267 269 269 261 269 272 265 270 285 223 189 184 181 193 213 182 189 213 206 193 203 200 174 185 196 185 167 163 160 161 147 141 151
28 333 283 302 324 306 215 261 281 275 263 275 280 278 279 289 292 287 284 274 265 256 260 260 271 242 206 188 182 192 205 191 180 191 219 198 199 216 193 188 194 178 166 169 171 164 156 159 174
252 273 286 285 310 306 265 270 288 289 258 258 268 270 269 276 278 287 295 285 272 261 261 258 265 253 212 175 154 167 142 199 177 207 229 200 198 206 204 185 189 175 169 170 171 167 160 162 168
192 235 272 277 297 303 271 277 286 290 281 270 268 267 269 268 274 288 297 295 287 282 283 270 271 260 204 194 184 211 247 236 207 245 266 213 205 195 191 177 185 182 181 181 177 164 157 150 129
247 265 277 290 299 299 290 284 281 276 260 258 267 273 270 279 296 306 311 308 306 287 276 268 261 249 215 212 200 209 217 229 216 226 247 225 212 198 196 171 185 188 182 175 171 156 159 158 150
278 244 257 277 311 310 306 298 285 285 282 286 282 275 276 269 279 300 308 310 314 304 291 278 266 241 217 209 160 119 67 10 251 271 260 241 234 216 202 193 200 185 177 185 182 174 168 173 187
268 259 256 276 314 307 350 301 290 281 291 295 299 299 291 281 275 286 299 309 303 289 289 284 265 231 206 189 174 177 196 220 242 253 254 238 221 218 215 192 202 187 175 181 190 182 175 170 185
244 283 264 265 248 289 281 263 285 312 293 289 290 285 284 285 284 287 284 283 288 288 285 286 264 216 194 192 185 193 208 241 236 245 245 230 233 220 222 199 209 191 179 180 190 187 176 180 188
269 322 332 3 81 281 251 225 284 269 264 284 290 290 284 292 293 289 286 291 302 311 313 310 273 236 212 202 190 212 211 221 211 244 243 254 258 256 250 201 190 196 190 185 195 196 188 188 189
29 57 13 356 348 259 230 225 256 259 263 269 282 292 293 284 289 296 300 303 311 316 314 309 306 262 263 236 214 220 228 227 219 228 230 247 277 286 273 234 197 206 205 202 193 182 182 184 187
210 137 152 224 256 288 290 242 256 266 281 284 288 299 313 308 301 291 280 278 282 289 298 315 315 285 256 246 244 224 215 239 260 249 233 236 264 287 303 340 191 205 195 192 182 168 171 172 182
131 159 174 141 296 285 274 281 293 299 322 327 329 332 321 313 304 294 283 273 270 274 288 301 301 302 274 253 238 221 222 231 252 278 360 319 311 327 356 8 9 123 186 191 181 160 159 144 153
136 146 106 120 261 288 291 278 276 313 319 324 325 319 313 314 310 296 284 281 278 268 280 315 301 300 298 300 330 296 279 247 176 158 76 333 313 333 53 19 34 58 79 163 161 137 139 127 141
133 119 127 139 175 203 288 281 251 281 300 303 297 299 301 302 301 298 284 280 284 286 280 322 354 354 330 337 342 329 299 81 81 72 39 3 323 4 59 59 91 96 91 98 131 131 134 132 131
174 176 156 162 236 203 233 274 292 298 306 303 301 308 311 310 311 311 313 310 313 314 324 337 359 340 329 343 350 343 29 64 70 53 42 16 343 13 39 84 98 98 101 109 129 134 128 140 145